Location: Blangy-Tronville
(49.8790°N, 2.4226°E)
Time: 21:30:33
(UTC+00:00)

Cosmos 1190 Rocket - Pass Details

Date: 18 November 2025
Orbit: 752 x 776 km, 74.1° (Epoch: 05 December)

Event Time Altitude Azimuth Distance (km) Brightness Sun altitude
Rises 17:54:06 0° 195° (SSW) 3,241 7.6 -17.6°
Reaches altitude 10° 17:56:29 10° 194° (SSW) 2,319 6.8 -18.0°
Maximum altitude 18:01:44 73° 111° (ESE) 813 3.9 -18.9°
Enters shadow 18:05:25 20° 29° (NNE) 1,729 5.5 -19.4°
